CAPE
0 0 0 0 0 0 0 0 0 0 0 0 0 0 0 2 2 1 4 0 1 2 3 2 3 3 3 4 3 3 6 6 7 5 6 8 3 1 1 2 1 2 0 0
0 0 0 0 0 0 0 0 0 0 0 0 0 1 0 3 1 2 3 0 1 2 2 3 3 2 2 4 3 3 4 6 6 3 3 7 9 10 4 5 2 5 1 0
0 0 0 0 0 0 0 0 0 0 0 0 1 0 1 0 1 2 4 0 0 2 2 3 2 2 1 2 3 4 4 4 4 6 4 0 2 4 3 11 11 9 9 6
0 0 0 0 0 0 1 0 0 0 0 1 2 1 1 1 1 4 3 1 2 3 2 2 3 1 2 2 3 4 4 4 4 5 5 4 0 0 3 4 5 8 13 12
0 0 0 0 0 0 0 0 0 0 2 3 2 0 1 1 2 3 1 1 1 1 2 1 1 1 3 2 2 2 3 4 3 4 3 6 4 2 1 3 2 6 5 5
0 0 0 0 0 2 0 0 0 0 0 0 0 0 1 1 2 1 1 1 1 2 2 1 1 1 0 1 0 1 3 2 2 2 2 4 3 4 2 2 2 2 5 3
0 0 0 0 0 0 0 0 0 0 0 1 0 1 2 1 1 1 1 2 1 1 1 2 1 1 0 0 1 2 2 3 2 2 2 2 1 1 2 1 1 3 4 2
0 0 0 0 0 0 0 0 0 1 1 0 0 0 0 0 0 0 0 1 2 2 2 2 2 1 1 0 2 2 3 3 3 3 2 2 2 2 1 1 1 2 1 3
0 0 0 0 0 0 0 0 0 1 2 0 0 0 0 0 0 0 0 1 1 1 1 2 2 0 0 0 0 0 1 4 3 2 2 2 2 2 1 1 1 2 2 1
0 0 0 0 0 0 1 0 0 1 0 0 0 0 0 0 0 0 0 1 0 0 0 0 0 0 0 0 0 0 0 3 3 4 3 2 1 1 3 3 3 3 2 2
0 0 1 0 0 1 0 0 0 0 0 0 0 0 0 0 0 1 1 0 0 0 0 0 0 0 0 0 0 0 0 0 0 1 0 1 0 1 1 1 1 1 1 1
0 0 0 2 1 1 0 0 0 0 0 0 0 0 0 0 0 0 0 0 0 0 0 0 0 0 0 0 0 0 0 0 0 0 0 0 0 1 0 1 1 1 0 1
0 1 1 2 1 1 0 0 1 0 0 0 2 1 0 0 1 0 0 0 0 0 0 0 0 0 0 0 0 0 0 0 0 0 0 0 0 0 0 0 0 0 0 1
0 0 0 0 0 1 1 1 1 1 1 1 1 0 0 0 0 0 0 0 0 0 0 0 0 0 0 0 0 0 0 0 0 0 0 0 0 0 0 0 0 0 0 0
0 0 0 1 1 1 1 0 0 1 1 2 1 0 0 0 0 0 0 0 0 0 0 0 0 0 0 0 0 0 0 0 0 0 0 0 0 0 0 0 0 0 0 0
0 0 0 1 1 1 1 1 0 0 0 0 0 0 0 0 0 0 0 0 0 0 0 0 0 0 0 0 0 0 0 0 0 0 0 0 0 0 0 0 0 0 0 0
1 1 0 1 1 1 1 0 0 0 1 0 0 0 0 0 0 0 0 0 0 0 0 0 0 0 0 0 0 0 0 0 0 0 0 0 0 0 0 0 0 0 0 0
0 0 0 0 0 0 1 1 1 1 0 0 0 0 0 0 0 0 0 0 0 0 0 0 0 0 0 0 0 0 0 0 0 0 0 0 0 0 0 0 0 0 0 0
0 0 0 0 0 0 0 0 0 0 0 0 0 0 0 0 0 0 0 0 0 0 0 0 0 0 0 0 0 0 0 0 0 0 0 0 0 0 0 0 0 0 0 0
0 0 0 0 0 0 0 0 0 0 0 0 0 0 0 0 0 0 0 0 0 0 0 0 0 0 0 0 0 0 0 0 0 0 0 0 0 0 0 0 0 0 0 0
0 0 0 0 0 0 0 0 0 0 0 0 0 0 0 0 0 0 0 0 0 0 0 0 0 0 0 0 0 0 0 0 0 0 0 0 0 0 0 0 0 0 0 0
0 0 0 0 0 0 0 0 0 0 0 0 0 0 0 0 0 0 0 0 0 0 0 0 0 0 0 0 0 0 0 0 0 0 0 0 0 0 0 0 0 0 0 0
0 0 0 0 0 0 0 0 0 0 0 0 0 0 0 0 0 0 0 0 0 0 0 0 0 0 0 0 0 0 0 0 0 0 0 0 0 0 0 0 0 0 0 0
0 0 0 0 0 0 0 0 0 0 0 0 0 0 0 0 0 0 0 0 0 0 0 0 0 0 0 0 0 0 0 0 0 0 0 0 0 0 0 0 0 0 0 0
0 0 0 0 0 0 0 0 0 0 0 0 0 0 0 0 0 0 0 0 0 0 0 0 0 0 0 0 0 0 0 0 0 0 0 0 0 0 0 0 0 0 0 0
0 0 0 0 0 0 0 0 0 0 0 0 0 0 0 0 0 0 0 0 0 0 0 0 0 0 0 0 0 0 0 0 0 0 0 0 0 0 0 0 0 0 0 0
0 0 0 0 0 0 0 0 0 0 0 0 0 0 0 0 0 0 0 0 0 0 0 0 0 0 0 0 0 0 0 0 0 0 0 0 0 0 0 0 0 0 0 0
CIN
-0 -0 -0 -0 -0 -0 -0 -0 -0 -0 -0 -0 -0 -0 -0 -0 -0 -0 -0 -0 -0 -0 -0 -0 -0 -0 -0 -0 -0 -0 -0 -0 -0 -0 -0 -0 -0 -0 -0 -0 -0 -0 -0 -0
-0 -0 -0 -0 -0 -0 -0 -0 -0 -0 -0 -0 -0 -0 -0 -0 -0 -0 -0 -0 -0 -0 -0 -0 -0 -0 -0 -0 -0 -0 -0 -0 -0 -0 -0 -0 -0 -0 -0 -0 -0 -0 -0 -0
-0 -0 -0 -0 -0 -0 -0 -1 -0 -0 -0 -0 -0 -0 -0 -0 -0 -0 -0 -0 -0 -0 -0 -0 -0 -0 -0 -0 -0 -0 -0 -0 -0 -0 -0 -0 -0 -0 -0 -0 -0 -0 -0 -0
-0 -0 -0 -0 -0 -0 -0 -0 -0 -0 -2 -0 -0 -0 -0 -0 -0 -0 -0 -0 -0 -0 -0 -0 -0 -0 -0 -0 -0 -0 -0 -0 -0 -0 -0 -0 -0 -0 -0 -0 -0 -0 -0 -0
-0 -0 -0 -0 -0 -0 -0 -0 -0 -0 -0 -0 -0 -0 -0 -0 -0 -0 -0 -0 -0 -0 -0 -0 -0 -0 -0 -0 -0 -0 -0 -0 -0 -0 -0 -0 -0 -0 -0 -0 -0 -0 -0 -0
-0 -0 -0 -0 -0 -0 -0 -0 -0 -0 -0 -0 -0 -0 -0 -0 -0 -0 -0 -0 -0 -0 -0 -0 -0 -0 -0 -0 -0 -0 -0 -0 -0 -0 -0 -0 -0 -0 -0 -0 -0 -0 -0 -0
-0 -0 -0 -0 -0 -0 -0 -0 -0 -0 -0 -0 -0 -0 -0 -0 -0 -0 -0 -0 -0 -0 -0 -0 -0 -0 -0 -0 -0 -0 -0 -0 -0 -0 -0 -0 -0 -0 -0 -0 -0 -0 -0 -0
-0 -0 -0 -0 -0 -0 -0 -0 -0 -0 -0 -0 -0 -0 -0 -0 -0 -0 -0 -0 -0 -0 -0 -0 -0 -0 -0 -0 -0 -0 -0 -0 -0 -0 -0 -0 -0 -0 -0 -0 -0 -0 -0 -0
-0 -0 -0 -0 -0 -0 -0 -0 -0 -0 -0 -0 -0 -0 -0 -0 -0 -0 -0 -0 -0 -0 -0 -0 -0 -0 -0 -0 -0 -0 -0 -0 -0 -0 -0 -0 -0 -0 -0 -0 -0 -0 -0 -0
-0 -0 -0 -0 -0 -0 -0 -0 -0 -0 -0 -0 -0 -0 -0 -0 -0 -0 -0 -0 -0 -0 -0 -0 -0 -0 -0 -0 -0 -0 -0 -0 -0 -0 -0 -0 -0 -0 -0 -0 -0 -0 -0 -0
-0 -0 -0 -0 -0 -0 -0 -0 -0 -0 -0 -0 -0 -0 -0 -0 -0 -0 -0 -0 -0 -0 -0 -0 -0 -0 -0 -0 -0 -0 -0 -0 -0 -0 -0 -0 -0 -0 -0 -0 -0 -0 -0 -0
-0 -0 -0 -0 -0 -0 -0 -0 -0 -0 -0 -0 -0 -0 -0 -0 -0 -0 -0 -0 -0 -0 -0 -0 -0 -0 -0 -0 -0 -0 -0 -0 -0 -0 -0 -0 -0 -0 -0 -0 -0 -0 -0 -0
-0 -0 -0 -0 -0 -0 -0 -0 -0 -0 -0 -0 -0 -0 -0 -0 -0 -0 -0 -0 -0 -0 -0 -0 -0 -0 -0 -0 -0 -0 -0 -0 -0 -0 -0 -0 -0 -0 -0 -0 -0 -0 -1 -1
-0 -0 -0 -0 -0 -0 -0 -0 -0 -0 -0 -0 -0 -0 -0 -0 -0 -0 -0 -0 -0 -0 -0 -0 -0 -0 -0 -0 -0 -0 -0 -0 -0 -0 -0 -0 -0 -0 -0 -0 -0 -0 -0 -0
-0 -0 -0 -0 -0 -0 -0 -0 -0 -0 -0 -0 -0 -0 -0 -0 -0 -0 -0 -0 -0 -0 -0 -0 -0 -0 -0 -0 -0 -0 -0 -0 -0 -0 -0 -0 -0 -0 -0 -0 -0 -0 -0 -0
-0 -0 -0 -0 -0 -0 -0 -0 -0 -0 -0 -0 -0 -0 -0 -0 -0 -0 -0 -0 -0 -0 -0 -0 -0 -0 -0 -0 -0 -0 -0 -0 -0 -0 -0 -0 -0 -0 -0 -0 -0 -0 -0 -0
-0 -0 -0 -0 -0 -0 -0 -0 -0 -0 -0 -0 -0 -0 -0 -0 -0 -0 -0 -0 -0 -0 -0 -0 -0 -0 -0 -0 -0 -0 -0 -0 -0 -0 -0 -0 -0 -0 -0 -0 -0 -0 -0 -0
-0 -0 -0 -0 -0 -0 -0 -0 -0 -0 -0 -0 -0 -0 -0 -0 -0 -0 -0 -0 -0 -0 -0 -0 -0 -0 -0 -0 -0 -0 -0 -0 -0 -0 -0 -0 -0 -0 -0 -0 -0 -0 -0 -0
-0 -0 -0 -0 -0 -0 -0 -0 -0 -0 -0 -0 -0 -0 -0 -0 -0 -0 -0 -0 -0 -0 -0 -0 -0 -0 -0 -0 -0 -0 -0 -0 -0 -0 -0 -0 -0 -0 -0 -0 -0 -0 -0 -0
-0 -0 -0 -0 -0 -0 -0 -0 -0 -0 -0 -0 -0 -0 -0 -0 -0 -0 -0 -0 -0 -0 -0 -0 -0 -0 -0 -0 -0 -0 -0 -0 -0 -0 -0 -0 -0 -0 -0 -0 -0 -0 -0 -0
-0 -0 -0 -0 -0 -0 -0 -0 -0 -0 -0 -0 -0 -0 -0 -0 -0 -0 -0 -0 -0 -0 -0 -0 -0 -0 -0 -0 -0 -0 -0 -0 -0 -0 -0 -0 -0 -0 -0 -0 -0 -0 -0 -0
-0 -0 -0 -0 -0 -0 -0 -0 -0 -0 -0 -0 -0 -0 -0 -0 -0 -0 -0 -0 -0 -0 -0 -0 -0 -0 -0 -0 -0 -0 -0 -0 -0 -0 -0 -0 -0 -0 -0 -0 -0 -0 -0 -0
-0 -0 -0 -0 -0 -0 -0 -0 -0 -0 -0 -0 -0 -0 -0 -0 -0 -0 -0 -0 -0 -0 -0 -0 -0 -0 -0 -0 -0 -0 -0 -0 -0 -0 -0 -0 -0 -0 -0 -0 -0 -0 -0 -0
-0 -0 -0 -0 -0 -0 -0 -0 -0 -0 -0 -0 -0 -0 -0 -0 -0 -0 -0 -0 -0 -0 -0 -0 -0 -0 -0 -0 -0 -0 -0 -0 -0 -0 -0 -0 -0 -0 -0 -0 -0 -0 -0 -0
-0 -0 -0 -0 -0 -0 -0 -0 -0 -0 -0 -0 -0 -0 -0 -0 -0 -0 -0 -0 -0 -0 -0 -0 -0 -0 -0 -0 -0 -0 -0 -0 -0 -0 -0 -0 -0 -0 -0 -0 -0 -0 -0 -0
-0 -0 -0 -0 -0 -0 -0 -0 -0 -0 -0 -0 -0 -0 -0 -0 -0 -0 -0 -0 -0 -0 -0 -0 -0 -0 -0 -0 -0 -0 -0 -0 -0 -0 -0 -0 -0 -0 -0 -0 -0 -0 -0 -0
-0 -0 -0 -0 -0 -0 -0 -0 -0 -0 -0 -0 -0 -0 -0 -0 -0 -0 -0 -0 -0 -0 -0 -0 -0 -0 -0 -0 -0 -0 -0 -0 -0 -0 -0 -0 -0 -0 -0 -0 -0 -0 -0 -0
Wind_Speed
20 22 23 25 26 27 30 30 35 37 34 34 33 29 27 26 26 26 26 28 28 27 27 25 25 25 25 24 24 23 21 18 17 17 18 20 20 22 21 17 16 17 12 14
24 23 26 31 30 30 30 32 33 33 30 31 25 22 24 23 22 22 22 22 22 22 22 22 23 22 23 23 23 21 19 17 17 16 14 15 17 19 20 16 15 10 9 11
29 24 31 35 25 21 23 24 27 26 24 23 19 21 21 20 19 19 19 17 17 16 16 17 20 20 21 21 21 19 17 17 16 15 14 15 16 14 9 6 8 6 7 9
28 28 31 22 19 21 24 21 26 30 20 12 14 17 15 15 16 15 14 15 15 14 15 17 19 22 21 20 20 19 18 18 17 17 15 15 13 10 8 6 3 3 1 4
25 24 27 22 17 21 21 21 19 16 9 10 16 9 11 13 13 11 11 12 14 14 16 17 20 19 23 23 23 21 19 19 18 18 16 18 12 12 10 8 7 4 4 4
16 18 17 14 23 21 19 21 15 17 23 27 24 18 16 11 9 9 10 11 14 15 17 19 19 20 23 25 25 25 22 20 19 19 19 15 17 15 9 12 8 4 7 8
9 14 17 19 20 16 19 16 13 16 22 25 17 12 6 7 7 9 10 12 13 15 18 18 20 21 25 26 26 24 23 23 20 20 20 19 17 16 14 11 7 10 10 11
15 15 17 18 14 14 14 12 10 8 3 11 8 7 4 4 6 7 9 12 13 16 18 20 21 22 25 26 25 25 24 25 25 25 23 20 19 18 16 16 15 13 14 13
15 15 13 12 10 10 9 9 6 4 4 6 1 2 3 4 6 8 11 12 14 16 17 20 23 24 26 25 26 27 26 25 26 25 25 25 23 21 19 19 18 16 17 14
16 12 9 9 9 7 6 4 3 4 4 5 1 2 3 6 7 9 12 15 17 21 22 24 25 26 27 28 27 27 27 27 26 26 25 26 25 25 23 21 19 19 18 17
11 13 9 8 8 7 5 4 2 4 5 5 8 8 10 10 11 13 15 17 20 22 23 24 25 25 25 26 26 27 27 26 26 26 25 26 27 26 24 26 23 20 20 19
14 13 10 10 9 8 7 8 9 9 8 7 10 11 12 12 13 15 16 18 20 22 23 25 26 26 26 26 26 25 26 26 26 26 26 25 24 24 27 26 26 25 24 22
13 11 10 8 8 7 7 6 5 5 7 10 11 12 12 12 12 14 16 18 20 21 22 23 25 26 27 27 26 25 25 25 25 25 25 25 24 24 23 24 26 26 25 24
14 12 12 12 9 13 11 8 9 8 9 10 11 12 12 13 14 15 17 19 20 21 22 23 24 25 26 26 26 26 25 25 25 25 25 25 25 24 24 24 24 25 25 25
14 13 11 12 10 9 10 10 9 9 10 11 12 13 13 13 14 15 16 17 19 21 23 24 24 25 26 26 26 26 25 25 25 26 26 25 25 24 24 24 25 25 25 25
11 12 12 11 10 10 10 10 10 10 11 11 12 13 13 13 14 16 17 18 19 21 23 24 25 25 26 26 26 26 26 26 26 26 26 26 26 26 25 26 26 26 27 27
8 9 10 11 11 11 11 11 10 10 10 11 11 12 12 13 14 15 16 18 19 20 22 24 24 25 26 26 27 27 27 27 27 27 27 26 27 27 26 26 27 27 27 27
13 11 10 11 10 10 10 10 9 9 9 10 10 11 12 13 14 15 15 17 18 20 22 24 25 26 27 28 28 28 28 29 29 29 29 29 28 28 28 28 28 28 28 27
9 9 10 11 11 11 11 11 10 11 11 12 12 13 13 13 14 15 16 18 20 22 24 26 27 27 27 28 29 29 30 30 30 30 30 30 30 30 30 30 29 29 29 29
9 9 10 11 10 10 11 11 11 11 11 12 12 12 13 14 15 16 17 20 22 22 23 26 27 28 29 29 30 30 31 31 31 31 31 31 32 32 32 31 31 31 31 30
10 8 12 14 14 15 14 13 13 12 12 12 12 12 13 14 15 17 19 20 22 22 23 25 27 29 29 29 30 31 32 32 32 32 32 33 33 33 33 33 33 33 32 31
11 12 13 14 14 14 14 15 14 12 12 12 12 13 14 15 16 17 18 21 22 23 24 25 27 28 29 30 30 31 32 32 32 33 33 34 34 35 35 35 35 33 33 31
10 11 11 12 12 12 13 13 13 12 12 11 12 12 13 15 16 19 22 20 21 23 25 26 27 28 30 31 31 32 32 33 33 34 34 34 34 34 34 35 34 33 32 32
9 10 10 10 11 11 11 11 11 11 11 11 12 12 14 16 17 18 20 21 23 24 26 27 29 30 31 32 33 33 34 35 35 34 34 34 34 33 32 32 32 31 30 29
9 10 10 9 9 10 10 10 10 11 11 12 13 14 14 17 20 20 22 23 24 26 29 29 31 32 33 34 34 35 35 35 35 35 35 34 34 32 31 31 30 30 29 27
8 8 9 10 10 10 10 11 12 12 12 13 16 19 20 21 22 23 23 25 26 27 29 31 33 33 34 35 36 36 36 36 36 35 35 34 33 32 32 32 32 31 29 28
8 9 9 10 11 11 11 13 14 14 15 16 18 20 22 23 24 24 25 26 28 30 31 32 34 35 35 36 36 36 36 36 35 35 34 34 33 33 33 33 33 33 31 30
Wind_Direction
308 310 310 307 306 304 299 298 295 299 295 300 305 308 312 299 291 298 301 323 320 322 320 317 319 319 322 318 319 320 320 307 307 294 292 291 285 277 268 251 250 231 220 240
309 310 310 307 307 303 300 299 296 295 292 298 302 306 295 278 277 290 298 315 313 316 322 325 324 321 324 326 326 326 325 313 312 320 308 303 301 286 281 242 242 213 232 232
307 316 315 310 317 318 318 314 309 299 296 293 297 280 261 258 270 280 293 310 308 307 313 323 330 328 330 331 335 336 331 329 320 318 320 326 330 328 316 240 220 241 230 228
310 316 308 324 335 331 333 331 326 307 295 286 271 245 260 273 259 279 304 318 311 310 319 328 335 344 343 344 345 346 343 341 337 335 333 335 346 357 7 353 291 232 313 264
310 313 315 325 338 335 338 346 301 290 283 237 215 244 269 260 298 303 306 304 315 319 328 335 344 343 356 359 358 353 349 350 343 345 346 353 349 342 357 346 334 333 341 328
326 328 335 351 275 257 233 233 257 234 193 177 187 231 241 280 288 314 317 319 332 337 344 351 349 350 1 6 7 5 359 357 357 358 358 349 1 358 349 10 332 344 17 357
354 339 325 262 270 234 206 220 238 226 200 178 225 241 286 294 315 324 325 336 341 349 358 352 354 358 9 10 10 5 7 12 9 6 8 11 11 11 12 8 1 8 10 358
315 314 237 289 231 211 208 229 233 231 299 55 33 28 354 300 314 325 335 342 347 354 358 356 357 2 9 11 7 11 12 16 18 18 17 13 14 13 11 12 13 7 10 7
222 211 256 276 238 248 251 231 255 317 353 28 339 289 292 301 331 343 350 349 353 359 358 0 4 7 12 8 10 16 16 15 18 19 19 19 17 14 10 10 7 3 7 2
214 228 246 258 249 269 313 240 267 233 222 214 7 294 332 349 352 356 358 3 7 16 13 11 7 11 15 16 15 17 18 16 15 17 16 16 17 16 14 6 2 358 356 356
221 218 278 284 284 250 296 310 320 340 358 7 25 21 24 17 12 10 9 10 14 16 16 13 11 9 4 7 12 17 17 14 15 16 15 16 17 15 14 16 10 3 1 356
217 220 261 273 291 308 322 357 9 16 17 4 26 30 26 21 16 15 13 12 12 13 16 19 19 15 10 9 9 12 14 13 12 13 13 13 13 14 17 17 15 14 11 4
277 329 332 284 289 295 325 326 327 352 10 29 22 25 20 14 6 10 6 7 11 13 13 11 11 12 12 14 15 13 10 8 7 7 7 6 5 4 2 4 10 8 6 3
30 9 2 260 319 29 22 7 15 9 8 12 13 10 7 12 13 9 10 11 13 13 11 8 7 7 5 7 11 12 11 8 5 3 1 0 359 358 356 353 352 352 357 357
333 325 11 46 26 6 18 15 355 345 353 1 6 9 3 360 3 4 5 8 8 10 10 8 5 2 2 6 4 2 1 1 1 0 360 359 359 358 358 356 354 352 349 348
16 31 36 18 10 9 360 358 356 347 352 355 358 357 7 5 6 8 6 9 8 7 10 7 1 354 356 359 358 358 360 359 358 356 354 352 351 350 349 347 346 344 342 339
6 356 10 8 10 5 1 6 6 2 0 2 9 14 14 14 14 11 10 8 9 8 7 2 351 349 351 352 352 354 356 356 355 354 352 350 348 346 344 342 340 339 338 339
301 322 351 11 12 7 11 13 7 2 6 11 13 15 13 13 12 7 3 359 2 360 351 346 346 347 349 351 353 353 352 349 347 345 344 343 342 340 339 337 336 334 333 334
341 5 13 23 34 38 40 37 30 37 41 49 50 44 38 25 12 3 1 358 353 349 346 347 350 352 352 350 350 349 348 346 345 343 341 339 337 335 333 332 331 330 329 328
356 5 18 18 10 32 47 44 48 39 37 50 48 38 31 25 21 14 6 356 353 353 353 351 351 351 349 348 348 347 346 344 342 341 339 337 334 332 330 328 326 324 323 322
264 338 41 61 61 63 67 66 63 55 54 49 42 39 30 19 10 4 360 358 357 357 356 354 351 350 349 348 347 346 344 343 341 339 337 335 333 331 329 327 324 322 320 318
20 42 54 62 64 62 65 67 62 55 48 45 40 32 25 19 14 9 7 359 358 356 355 353 351 350 350 349 347 345 343 341 339 338 335 333 331 328 327 326 322 322 321 319
15 35 45 57 60 57 53 56 57 53 47 41 36 30 21 14 10 3 353 1 358 355 353 351 350 348 346 345 343 341 340 338 336 334 333 332 330 327 326 324 323 322 319 318
26 45 41 40 47 41 38 40 41 31 25 29 26 21 14 8 3 360 356 355 353 351 349 348 346 345 343 342 340 338 336 334 332 330 330 329 326 325 324 324 323 323 321 320
46 46 47 42 25 17 28 29 21 20 18 12 10 8 3 356 351 352 350 349 348 347 346 346 345 344 343 342 340 338 337 335 334 332 329 328 327 324 322 321 320 320 319 319
43 36 29 17 18 22 24 23 11 8 7 5 359 355 354 352 351 349 348 348 348 348 347 346 345 344 343 341 340 339 338 337 335 333 331 329 327 327 326 325 322 318 314 313
24 32 23 14 8 11 12 6 5 2 358 355 354 353 352 351 352 353 353 351 349 347 346 346 345 344 343 342 341 341 339 338 337 336 335 334 332 329 327 325 323 322 319 315